[[{"header":{"parameterUnit":"m.s-1","parameterCategory":1,"la1":30.2991,"la2":30.254,"lo1":-89.0895,"lo2":-89.0444,"dy":0.0017,"dx":0.0017,"nx":28,"ny":28,"refTime":"2025-03-13T21:00:00:Z","depth":0,"parameterNumber":2,"parameterNumberName":"U-component_of_WINDS"},"data":[0,0,0,0,0,0,0,0,0,0,0,0,0,0,0,0,0,0,0,0,0,0,0,0,0,0,0,0,0,0,0,0,0,0,0,0,0,0,0,0,0,0,0,0,0,0,0,0,0,0,0,0,0,0,0,0,0,0,-2.8311,-2.8314,0,-2.8578,-2.8581,-2.8584,-2.8691,-2.8691,-2.869,-2.8689,-2.8966,-2.8974,-2.8982,0,0,0,0,0,0,0,0,0,0,0,0,0,-2.7899,-2.7906,-2.8311,-2.8314,-2.8318,-2.8577,-2.8581,-2.8585,-2.8692,-2.8691,-2.869,-2.8689,-2.8963,-2.8973,-2.8982,0,0,0,0,0,0,0,0,0,0,0,0,0,-2.8113,-2.7908,-2.831,-2.8402,-2.8413,-2.8577,-2.8581,-2.8586,-2.8692,-2.8691,-2.869,-2.8689,-2.896,-2.8972,-2.8984,-2.9077,0,0,-2.902,-2.9025,0,0,0,0,0,0,0,0,-2.81,-2.8128,-2.8385,-2.8396,-2.8409,-2.86,-2.8537,-2.875,-2.8692,-2.8586,-2.8689,-2.8688,-2.8845,-2.8867,-2.8919,-2.909,-2.9101,-2.9021,-2.9028,-2.9033,-2.9037,0,0,0,0,0,0,0,-2.8085,-2.8117,-2.8417,-2.8389,-2.8403,-2.8432,-2.8461,-2.8578,-2.8718,-2.8595,-2.8604,-2.8633,-2.8851,-2.8907,-2.8926,-2.9106,-2.9021,-2.9031,-2.9039,-2.9043,-2.9368,-2.937,0,0,0,0,0,0,-2.8055,-2.8104,-2.8408,-2.8425,-2.8249,-2.844,-2.8473,-2.854,-2.8717,-2.8743,-2.8634,-2.8637,-2.8887,-2.8912,-2.8936,-2.9058,-2.9033,-2.9045,-2.9051,-2.9367,-2.9368,-2.937,0,0,0,0,0,0,-2.8046,-2.8081,-2.8397,-2.8267,-2.8309,-2.8448,-2.8522,-2.8546,-2.8601,-2.8746,-2.8772,-2.8665,-2.8887,-2.8919,-2.9041,-2.9069,-2.905,-2.9061,-2.9365,-2.9367,-2.9369,-2.93,0,0,0,0,0,0,-2.8033,-2.8077,-2.8112,-2.8267,-2.8316,-2.8496,-2.8524,-2.8551,-2.8621,-2.8628,-2.8782,-2.8807,-2.8889,-2.9023,-2.9053,-2.9085,-2.907,-2.9363,-2.9366,-2.9369,-2.9301,-2.93,-2.9299,0,0,0,0,0,-2.8018,-2.8083,-2.8114,-2.815,-2.8363,-2.8497,-2.8526,-2.8618,-2.8623,-2.8661,-2.8754,-2.8802,-2.9061,-2.9034,-2.9069,-2.9105,-2.9362,-2.9365,-2.9368,-2.9301,-2.93,-2.9299,0,0,0,0,0,0,-2.7929,-2.8105,-2.8141,-2.8257,-2.8361,-2.8515,-2.8565,-2.8614,-2.872,-2.8722,-2.8834,-2.8868,-2.898,-2.9056,-2.9023,-2.9206,-2.9215,-2.9226,-2.9152,-2.9152,-2.9152,-2.9131,-2.908,0,0,0,0,0,-2.7923,-2.8016,-2.8165,-2.8254,-2.8304,-2.8425,-2.8488,-2.855,-2.8663,-2.8708,-2.8811,-2.8919,-2.9026,-2.9094,-2.9199,-2.9313,-2.9348,-2.9355,-2.9354,-2.9353,-2.936,-2.9427,-2.9432,-2.9381,-2.9381,-2.9381,0,0,-2.7911,-2.8019,-2.8071,-2.8239,-2.8327,-2.8422,-2.8462,-2.8561,-2.8634,-2.8724,-2.8845,-2.8924,-2.9053,-2.9171,-2.9228,-2.9237,-2.9383,-2.9357,-2.9355,-2.9363,-2.9431,-2.9436,-2.944,-2.9383,-2.9383,-2.9382,0,0,-2.7939,-2.8029,-2.8113,-2.8201,-2.8333,-2.8414,-2.8434,-2.8581,-2.8637,-2.876,-2.883,-2.8919,-2.9099,-2.9189,-2.9258,-2.9321,-2.9369,-2.9352,-2.9348,-2.9412,-2.9416,-2.942,-2.9443,-2.945,-2.9359,-2.9359,-2.9359,0,-2.7908,-2.8053,-2.815,-2.8246,-2.8318,-2.8404,-2.849,-2.8571,-2.8732,-2.8781,-2.8788,-2.9017,-2.911,-2.9251,-2.9266,-2.9319,-2.9347,-2.9335,-2.9407,-2.9412,-2.9418,-2.9441,-2.9449,-2.9356,-2.9357,-2.9357,-2.9357,0,-2.8009,-2.8109,-2.8161,-2.8313,-2.8392,-2.8482,-2.8594,-2.8663,-2.8719,-2.8799,-2.8924,-2.9039,-2.917,-2.9208,-2.9264,-2.9357,-2.9359,-2.9385,-2.9397,-2.9418,-2.9442,-2.9451,-2.9352,-2.9353,-2.9354,-2.9355,0,0,-2.7987,-2.8192,-2.821,-2.828,-2.8434,-2.8514,-2.8609,-2.8737,-2.8793,-2.8902,-2.8985,-2.9137,-2.9163,-2.9241,-2.9308,-2.9364,-2.9408,-2.9385,-2.9389,-2.9385,-2.9519,-2.9498,-2.9506,-2.9441,-2.9443,-2.9445,-2.9508,0,-2.8035,-2.8208,-2.8298,-2.8433,-2.8528,-2.8611,-2.8695,-2.8799,-2.8877,-2.8969,-2.9057,-2.9162,-2.9188,-2.9236,-2.9295,-2.9389,-2.9436,-2.9386,-2.9521,-2.9524,-2.9485,-2.9519,-2.9497,-2.9551,-2.9518,-2.952,-2.9521,0,-2.8114,-2.8221,-2.8364,-2.8508,-2.8551,-2.8624,-2.8749,-2.8836,-2.8957,-2.901,-2.9097,-2.9164,-2.9269,-2.9274,-2.9421,-2.9386,-2.9447,-2.9501,-2.9506,-2.9522,-2.9523,-2.9535,-2.957,-2.9578,-2.9536,-2.9535,-2.9534,0,-2.8084,-2.8264,-2.8373,-2.8431,-2.8601,-2.8651,-2.8724,-2.8844,-2.8915,-2.9025,-2.9072,-2.9193,-2.9259,-2.9352,-2.9449,-2.9443,-2.9588,-2.96,-2.9636,-2.9633,-2.9662,-2.9659,-2.9707,-2.9701,-2.9701,-2.9701,-2.9701,0,-2.8128,-2.8213,-2.8362,-2.8429,-2.8527,-2.8632,-2.8727,-2.8807,-2.8913,-2.8998,-2.9079,-2.9158,-2.9282,-2.9377,-2.9455,-2.9566,-2.9595,-2.9642,-2.9661,-2.9635,-2.9629,-2.9676,-2.9675,-2.9703,-2.9703,-2.9702,-2.9702,0,-2.811,-2.8213,-2.8338,-2.8489,-2.8529,-2.8595,-2.8725,-2.8795,-2.8877,-2.8985,-2.9016,-2.9146,-2.9262,-2.9369,-2.9524,-2.9576,-2.9689,-2.9714,-2.9647,-2.9658,-2.9688,-2.9684,-2.9768,-2.9785,-2.9766,-2.9766,-2.9766,0,-2.8132,-2.8199,-2.8357,-2.8419,-2.8491,-2.8591,-2.8663,-2.877,-2.8843,-2.8986,-2.9038,-2.916,-2.9263,-2.9445,-2.9554,-2.9674,-2.9702,-2.9724,-2.9721,-2.9692,-2.9703,-2.9698,-2.9706,-2.9722,-2.9722,-2.9721,-2.9721,0,-2.8159,-2.8207,-2.8308,-2.8427,-2.8511,-2.8611,-2.8713,-2.876,-2.8886,-2.8964,-2.9084,-2.9163,-2.9322,-2.9442,-2.9574,-2.9652,-2.9708,-2.9721,-2.9736,-2.9709,-2.9668,-2.9691,-2.9644,-2.9719,-2.9719,-2.9719,-2.9719,-2.9719,-2.8162,-2.8226,-2.8347,-2.8457,-2.8545,-2.8639,-2.8712,-2.8803,-2.8904,-2.904,-2.9097,-2.9218,-2.9339,-2.9522,-2.96,-2.9697,-2.9709,-2.973,-2.9735,-2.9739,-2.9734,-2.9652,-2.9721,-2.9722,-2.9722,-2.9722,-2.9722,0,-2.8194,-2.8276,-2.8376,-2.8516,-2.8603,-2.8648,-2.8763,-2.8834,-2.8939,-2.9046,-2.9146,-2.9284,-2.9401,-2.952,-2.9644,-2.9699,-2.9728,-2.9729,-2.9726,-2.9743,-2.9716,-2.9691,-2.9703,-2.9703,-2.9703,-2.9703,-2.9703,-2.9703,-2.822,-2.8331,-2.8393,-2.8549,-2.8631,-2.8749,-2.8812,-2.8899,-2.8985,-2.9135,-2.9233,-2.9309,-2.9422,-2.9555,-2.9665,-2.9697,-2.974,-2.9733,-2.9772,-2.9744,-2.9745,-2.9745,-2.9722,-2.9741,-2.9741,-2.9791,-2.9791,-2.9792]},{"header":{"parameterUnit":"m.s-1","parameterCategory":1,"la1":30.2991,"la2":30.254,"lo1":-89.0895,"lo2":-89.0444,"dy":0.0017,"dx":0.0017,"nx":28,"ny":28,"refTime":"2025-03-13T21:00:00:Z","depth":0,"parameterNumber":3,"parameterNumberName":"V-component_of_WINDS"},"data":[0,0,0,0,0,0,0,0,0,0,0,0,0,0,0,0,0,0,0,0,0,0,0,0,0,0,0,0,0,0,0,0,0,0,0,0,0,0,0,0,0,0,0,0,0,0,0,0,0,0,0,0,0,0,0,0,0,0,6.953,6.9532,0,6.9671,6.9673,6.9675,6.9674,6.9672,6.967,6.9669,6.9811,6.9816,6.9822,0,0,0,0,0,0,0,0,0,0,0,0,0,6.9259,6.9264,6.953,6.9532,6.9534,6.9671,6.9673,6.9675,6.9674,6.9672,6.967,6.9668,6.9809,6.9816,6.9822,0,0,0,0,0,0,0,0,0,0,0,0,0,6.9386,6.9266,6.953,6.955,6.9553,6.9671,6.9673,6.9676,6.9675,6.9672,6.9669,6.9667,6.9807,6.9815,6.9823,6.9929,0,0,6.9848,6.9852,0,0,0,0,0,0,0,0,6.9379,6.9396,6.9545,6.9549,6.9553,6.9652,6.963,6.9761,6.9676,6.9629,6.9669,6.9665,6.976,6.9772,6.9805,6.9936,6.9942,6.9849,6.9854,6.9858,6.986,0,0,0,0,0,0,0,6.937,6.939,6.9586,6.9547,6.9552,6.9552,6.9567,6.9655,6.9708,6.9632,6.9633,6.965,6.9762,6.9797,6.9808,6.9944,6.9849,6.9856,6.9861,6.9865,7.0174,7.0177,0,0,0,0,0,0,6.9358,6.9383,6.9581,6.959,6.9457,6.9559,6.9576,6.9623,6.9707,6.9717,6.9652,6.9649,6.9784,6.9798,6.9813,6.9946,6.9858,6.9865,6.987,7.0171,7.0175,7.0178,0,0,0,0,0,0,6.9352,6.9375,6.9576,6.9487,6.9512,6.9567,6.962,6.9627,6.9662,6.9722,6.9731,6.9678,6.9782,6.9801,6.9902,6.9951,6.9869,6.9877,7.0167,7.0172,7.0176,7.0211,0,0,0,0,0,0,6.9344,6.9373,6.9414,6.9488,6.9517,6.9662,6.9623,6.9632,6.9677,6.9675,6.9749,6.9758,6.9782,6.9889,6.991,6.9961,6.9883,7.0163,7.0169,7.0175,7.0205,7.0216,7.0225,0,0,0,0,0,6.9334,6.9417,6.9416,6.944,6.9569,6.9665,6.9682,6.9707,6.9681,6.9723,6.9761,6.9756,6.9942,6.99,6.9923,6.9977,7.016,7.0167,7.0174,7.0201,7.0214,7.0225,0,0,0,0,0,0,6.9346,6.9427,6.9427,6.9536,6.9594,6.9665,6.9718,6.972,6.9786,6.9781,6.9809,6.9826,6.9927,6.9961,6.9913,7.0086,7.0048,7.006,7.006,7.0073,7.0082,7.0073,6.989,0,0,0,0,0,6.9361,6.9433,6.9499,6.9588,6.9618,6.9663,6.9705,6.9721,6.9782,6.9806,6.9851,6.991,6.9983,7.0029,7.0098,7.021,7.0228,7.0259,7.0269,7.0277,7.0287,7.0352,7.0368,7.0202,7.0202,7.0202,0,0,6.9393,6.9446,6.9489,6.9592,6.9639,6.9713,6.9683,6.9762,6.9817,6.9817,6.9916,6.9952,7.0019,7.0127,7.0176,7.0159,7.0337,7.0286,7.0292,7.0298,7.0362,7.0377,7.0391,7.0207,7.0206,7.0206,0,0,6.949,6.9536,6.9618,6.9666,6.9738,6.9768,6.9787,6.9859,6.9884,6.9983,6.9986,7.0052,7.0174,7.0223,7.0264,7.0383,7.0382,7.0405,7.0457,7.052,7.0533,7.0545,7.059,7.0606,7.0415,7.0415,7.0415,0,6.9521,6.9632,6.9659,6.9739,6.9785,6.9791,6.9874,6.9919,7.0009,7.0041,7.002,7.0177,7.0222,7.0343,7.0373,7.0404,7.0429,7.0397,7.0529,7.0541,7.0553,7.0596,7.0613,7.0417,7.0417,7.0417,7.0417,0,6.9668,6.9746,6.9803,6.9892,6.9945,7.0025,7.0065,7.0115,7.0126,7.0158,7.0261,7.0316,7.0399,7.0428,7.0438,7.0551,7.0539,7.0523,7.0486,7.0571,7.0612,7.0629,7.0421,7.042,7.0419,7.0419,0,0,6.9775,6.9881,6.9901,6.9944,7.0024,7.0085,7.0167,7.0249,7.0292,7.0354,7.0425,7.053,7.0518,7.0564,7.0581,7.0636,7.073,7.0614,7.0616,7.0636,7.0861,7.0874,7.0893,7.0729,7.0732,7.0735,7.0857,0,6.9883,7.003,7.0058,7.0186,7.0259,7.0266,7.0338,7.0396,7.0429,7.0496,7.0532,7.0607,7.0583,7.0612,7.0667,7.0707,7.0776,7.0698,7.0797,7.08,7.0782,7.0914,7.0927,7.1039,7.0873,7.0875,7.0877,0,7.0028,7.0097,7.0233,7.0307,7.0339,7.0403,7.0482,7.0545,7.0611,7.0632,7.0686,7.0696,7.0783,7.0741,7.0862,7.0808,7.085,7.0877,7.0882,7.0893,7.0845,7.0932,7.1075,7.1093,7.0903,7.09,7.0899,0,7.0096,7.0222,7.0321,7.0356,7.0444,7.049,7.0529,7.0592,7.0641,7.0709,7.0742,7.0818,7.0861,7.0921,7.0953,7.0919,7.1073,7.1033,7.1094,7.1094,7.1127,7.1125,7.1282,7.115,7.115,7.115,7.115,0,7.0214,7.0298,7.0353,7.0414,7.0509,7.054,7.0633,7.0671,7.0728,7.0797,7.0806,7.0871,7.0908,7.0979,7.1004,7.1102,7.1121,7.1141,7.1147,7.1141,7.1139,7.117,7.1164,7.1154,7.1153,7.1153,7.1152,0,7.0307,7.0347,7.0456,7.0531,7.0552,7.0619,7.0684,7.0744,7.0777,7.0865,7.0887,7.094,7.1023,7.1061,7.1163,7.1181,7.1294,7.1293,7.1272,7.1275,7.1335,7.133,7.1519,7.1547,7.1394,7.1396,7.1397,0,7.0381,7.0446,7.0529,7.0577,7.0618,7.0694,7.0744,7.0777,7.083,7.0912,7.0962,7.1047,7.1116,7.1249,7.1297,7.1376,7.1379,7.144,7.1391,7.1385,7.1384,7.138,7.1388,7.145,7.1451,7.1452,7.1453,0,7.0509,7.0527,7.0599,7.068,7.074,7.0805,7.0868,7.0906,7.095,7.1008,7.1095,7.1149,7.1255,7.1339,7.1422,7.1462,7.1467,7.1468,7.1487,7.1483,7.147,7.1481,7.1299,7.1464,7.1463,7.1462,7.1462,7.1461,7.0597,7.0656,7.0725,7.0807,7.0858,7.0918,7.0979,7.1021,7.1094,7.1185,7.1199,7.1293,7.136,7.1472,7.1515,7.1589,7.1574,7.1601,7.1608,7.1615,7.162,7.1456,7.1604,7.1603,7.1603,7.1603,7.1603,0,7.0728,7.0773,7.0848,7.0937,7.1002,7.1,7.1071,7.1125,7.1208,7.127,7.1339,7.144,7.1523,7.1578,7.1662,7.171,7.1714,7.1731,7.1729,7.1739,7.1627,7.1603,7.1727,7.1727,7.1727,7.1727,7.1727,7.1727,7.0804,7.0905,7.0931,7.1059,7.1104,7.1196,7.1237,7.1293,7.1344,7.1457,7.1526,7.1562,7.1622,7.1711,7.1787,7.1801,7.1833,7.1851,7.1865,7.1759,7.1747,7.1734,7.1713,7.1857,7.1857,7.1972,7.1973,7.1974]}]]